Flag for Canada Weather past 2 weeks in Annapolis County, Nova Scotia, Canada

Now
43 °F

Quite cool.


Feels Like: 40 °F
Forecast: 49 / 56 °F
Wind: 5 mph from Southwest

Location: Kejimkujik 1

Current Time: Sep 23, 2014 at 7:39:50 AM

Latest Report: Sep 23, 2014 at 7:00 AM


Visibility: N/A

Pressure: 30.04 "Hg

Humidity: 94%

Dew point: 41 °F

Location of Annapolis CountyLocation

Historic Weather in Annapolis County — Graph

°F

Annapolis County temperature yesterday

Maximum temperature yesterday: 71 °F (at 3:00 PM)
Minimum temperature yesterday: 53 °F (at 11:00 PM)
Average temperature yesterday: 66 °F

Past Weeks' High & Low Weather Summary

 TemperatureHumidityPressure
High77 °F (Sep 21, 3:00 PM)100% (Sep 20, 5:00 AM)30.46 "Hg (Sep 20, 5:00 AM)
Low31 °F (Sep 20, 7:00 AM)27% (Sep 8, 5:00 PM)29.39 "Hg (Sep 22, 5:00 AM)
Average55 °F81%30.09 "Hg
* Reported Sep 8 6:00 AM — Sep 23 6:00 AM, Annapolis County, Weather by CustomWeather, © 2014

Note: Actual official high and low records may vary slightly from our data, if they occured in-between our weather recording intervals... More about our weather records

Advertising

Annapolis County weather history for previous 24 hours

 ConditionsComfort  
Time TempWeatherWind HumidityBarometerVisibility
6:00 AM
Sep 23
43 °FQuite cool.5 mph93%30.01 "HgN/A
5:00 AM44 °FQuite cool.5 mph92%29.98 "HgN/A
4:00 AM45 °FCool.5 mph90%29.96 "HgN/A
3:00 AM47 °FCool.6 mph85%29.94 "HgN/A
2:00 AM48 °FCool.5 mph83%29.93 "HgN/A
1:00 AM49 °FCool.6 mph78%29.90 "HgN/A
12:00 AM51 °FCool.7 mph76%29.89 "HgN/A
11:00 PM
Sep 22
53 °FCool.9 mph74%29.85 "HgN/A
10:00 PM55 °FCool.8 mph79%29.81 "HgN/A
9:00 PM58 °FCool.6 mph85%29.76 "HgN/A
8:00 PM58 °FCool.8 mph89%29.72 "HgN/A
7:00 PM62 °FCool.7 mph79%29.68 "HgN/A
6:00 PM64 °FMild.8 mph77%29.65 "HgN/A
5:00 PM68 °FMild.13 mph65%29.63 "HgN/A
4:00 PM70 °FMild.12 mph61%29.61 "HgN/A
3:00 PM71 °FMild.12 mph68%29.60 "HgN/A
2:00 PM71 °FMild.10 mph83%29.59 "HgN/A
1:00 PM68 °FMild.10 mph90%29.60 "HgN/A
12:00 PM69 °FMild.8 mph89%29.58 "HgN/A
11:00 AM69 °FMild.8 mph92%29.56 "HgN/A
10:00 AM68 °FMild.6 mph96%29.54 "HgN/A
9:00 AM67 °FMild.6 mph96%29.52 "HgN/A
8:00 AM66 °FMild.6 mph91%29.47 "HgN/A
7:00 AM67 °FMild.5 mph96%29.44 "HgN/A
Weather by CustomWeather, © 2014

See weather overviewHow to use our weather pages